Time,TemperatureF,DewpointF,PressureIn,WindDirection,WindDirectionDegrees,WindSpeedMPH,WindSpeedGustMPH,Humidity,HourlyPrecipIn,Conditions,Clouds,dailyrainin,SoftwareType,DateUTC
2013-03-18 00:05:00,21.2,10.0,30.31,NE,41,0.0,2.0,62,0.00,,,0.00,weatherlink.com 1.10,2013-03-18 04:05:00,
2013-03-18 00:20:00,20.7,10.0,30.31,NNE,22,0.0,2.0,63,0.00,,,0.00,weatherlink.com 1.10,2013-03-18 04:20:00,
2013-03-18 00:35:00,20.6,10.0,30.31,NNE,22,0.0,0.0,64,0.00,,,0.00,weatherlink.com 1.10,2013-03-18 04:35:00,
2013-03-18 00:50:00,20.3,10.0,30.31,NNE,22,0.0,0.0,64,0.00,,,0.00,weatherlink.com 1.10,2013-03-18 04:50:00,
2013-03-18 01:05:00,19.9,9.0,30.31,NNE,22,0.0,0.0,62,0.00,,,0.00,weatherlink.com 1.10,2013-03-18 05:05:00,
2013-03-18 01:20:00,19.7,8.0,30.32,NNE,22,0.0,1.0,60,0.00,,,0.00,weatherlink.com 1.10,2013-03-18 05:20:00,
2013-03-18 01:35:00,19.6,7.0,30.33,NNE,22,0.0,0.0,58,0.00,,,0.00,weatherlink.com 1.10,2013-03-18 05:35:00,
2013-03-18 01:51:00,19.1,9.0,30.34,NNE,18,0.0,1.0,64,0.00,,,0.00,weatherlink.com 1.10,2013-03-18 05:51:00,
2013-03-18 02:06:00,19.3,8.0,30.35,NNE,30,0.0,2.0,61,0.00,,,0.00,weatherlink.com 1.10,2013-03-18 06:06:00,
2013-03-18 02:21:00,19.3,8.0,30.34,NNE,32,0.0,1.0,62,0.00,,,0.00,weatherlink.com 1.10,2013-03-18 06:21:00,
2013-03-18 02:36:00,18.9,9.0,30.35,NNW,340,1.0,1.0,64,0.00,,,0.00,weatherlink.com 1.10,2013-03-18 06:36:00,
2013-03-18 02:51:00,18.0,9.0,30.35,North,351,0.0,1.0,67,0.00,,,0.00,weatherlink.com 1.10,2013-03-18 06:51:00,
2013-03-18 03:21:00,18.6,7.0,30.34,NNW,328,0.0,2.0,61,0.00,,,0.00,weatherlink.com 1.10,2013-03-18 07:21:00,
2013-03-18 03:36:00,18.8,8.0,30.34,NNW,328,0.0,1.0,63,0.00,,,0.00,weatherlink.com 1.10,2013-03-18 07:36:00,
2013-03-18 04:36:00,17.3,7.0,30.35,NE,42,1.0,2.0,65,0.00,,,0.00,weatherlink.com 1.10,2013-03-18 08:36:00,
2013-03-18 05:06:00,17.5,8.0,30.36,NE,42,0.0,1.0,66,0.00,,,0.00,weatherlink.com 1.10,2013-03-18 09:06:00,
2013-03-18 05:21:00,16.9,8.0,30.37,NE,42,0.0,0.0,69,0.00,,,0.00,weatherlink.com 1.10,2013-03-18 09:21:00,
2013-03-18 05:36:00,16.8,9.0,30.37,NE,42,0.0,1.0,70,0.00,,,0.00,weatherlink.com 1.10,2013-03-18 09:36:00,
2013-03-18 06:21:00,15.8,8.0,30.39,NE,47,0.0,1.0,70,0.00,,,0.00,weatherlink.com 1.10,2013-03-18 10:21:00,
2013-03-18 06:36:00,15.8,8.0,30.40,NE,45,0.0,1.0,70,0.00,,,0.00,weatherlink.com 1.10,2013-03-18 10:36:00,
2013-03-18 06:51:00,15.5,7.0,30.40,NE,40,0.0,2.0,69,0.00,,,0.00,weatherlink.com 1.10,2013-03-18 10:51:00,
2013-03-18 07:06:00,15.8,7.0,30.39,NE,40,0.0,1.0,69,0.00,,,0.00,weatherlink.com 1.10,2013-03-18 11:06:00,
2013-03-18 07:21:00,15.5,8.0,30.40,SE,143,0.0,1.0,71,0.00,,,0.00,weatherlink.com 1.10,2013-03-18 11:21:00,
2013-03-18 07:36:00,16.3,7.0,30.41,ESE,109,0.0,1.0,68,0.00,,,0.00,weatherlink.com 1.10,2013-03-18 11:36:00,
2013-03-18 07:51:00,16.2,8.0,30.40,South,186,0.0,2.0,71,0.00,,,0.00,weatherlink.com 1.10,2013-03-18 11:51:00,
2013-03-18 08:06:00,16.6,8.0,30.40,South,190,0.0,2.0,70,0.00,,,0.00,weatherlink.com 1.10,2013-03-18 12:06:00,
2013-03-18 08:21:00,17.7,9.0,30.40,South,184,1.0,2.0,70,0.00,,,0.00,weatherlink.com 1.10,2013-03-18 12:21:00,
2013-03-18 08:36:00,19.2,10.0,30.40,South,180,0.0,2.0,68,0.00,,,0.00,weatherlink.com 1.10,2013-03-18 12:36:00,
2013-03-18 08:51:00,20.9,9.0,30.40,SSE,162,0.0,2.0,60,0.00,,,0.00,weatherlink.com 1.10,2013-03-18 12:51:00,
2013-03-18 09:06:00,21.6,7.0,30.39,SE,141,1.0,3.0,53,0.00,,,0.00,weatherlink.com 1.10,2013-03-18 13:06:00,
2013-03-18 09:21:00,22.3,6.0,30.39,SSW,199,1.0,3.0,50,0.00,,,0.00,weatherlink.com 1.10,2013-03-18 13:21:00,
2013-03-18 09:37:00,23.0,5.0,30.38,ESE,110,0.0,5.0,46,0.00,,,0.00,weatherlink.com 1.10,2013-03-18 13:37:00,
2013-03-18 09:52:00,24.0,4.0,30.37,SSE,164,1.0,4.0,42,0.00,,,0.00,weatherlink.com 1.10,2013-03-18 13:52:00,
2013-03-18 10:22:00,25.0,4.0,30.36,SSW,207,5.0,8.0,40,0.00,,,0.00,weatherlink.com 1.10,2013-03-18 14:22:00,
2013-03-18 10:37:00,25.7,4.0,30.36,South,174,0.0,5.0,40,0.00,,,0.00,weatherlink.com 1.10,2013-03-18 14:37:00,
2013-03-18 10:52:00,26.1,2.0,30.36,SW,220,1.0,8.0,36,0.00,,,0.00,weatherlink.com 1.10,2013-03-18 14:52:00,
2013-03-18 11:07:00,26.4,1.0,30.36,ESE,123,1.0,6.0,33,0.00,,,0.00,weatherlink.com 1.10,2013-03-18 15:07:00,
2013-03-18 11:22:00,27.5,5.0,30.36,SW,229,2.0,5.0,38,0.00,,,0.00,weatherlink.com 1.10,2013-03-18 15:22:00,
2013-03-18 11:37:00,26.7,2.0,30.36,South,180,2.0,6.0,35,0.00,,,0.00,weatherlink.com 1.10,2013-03-18 15:37:00,
2013-03-18 11:52:00,28.2,5.0,30.36,ESE,102,2.0,8.0,37,0.00,,,0.00,weatherlink.com 1.10,2013-03-18 15:52:00,
2013-03-18 12:07:00,28.4,6.0,30.36,SE,135,1.0,5.0,38,0.00,,,0.00,weatherlink.com 1.10,2013-03-18 16:07:00,
2013-03-18 12:22:00,28.5,3.0,30.34,NE,52,0.0,5.0,34,0.00,,,0.00,weatherlink.com 1.10,2013-03-18 16:22:00,
2013-03-18 12:37:00,28.3,3.0,30.34,South,183,2.0,6.0,34,0.00,,,0.00,weatherlink.com 1.10,2013-03-18 16:37:00,
2013-03-18 12:52:00,29.3,3.0,30.35,SSW,213,1.0,7.0,33,0.00,,,0.00,weatherlink.com 1.10,2013-03-18 16:52:00,
2013-03-18 13:07:00,29.1,5.0,30.33,SSW,212,3.0,4.0,36,0.00,,,0.00,weatherlink.com 1.10,2013-03-18 17:07:00,
2013-03-18 13:22:00,29.0,5.0,30.33,SW,229,2.0,6.0,36,0.00,,,0.00,weatherlink.com 1.10,2013-03-18 17:22:00,
2013-03-18 13:37:00,29.1,5.0,30.32,SE,125,2.0,6.0,35,0.00,,,0.00,weatherlink.com 1.10,2013-03-18 17:37:00,
2013-03-18 13:52:00,29.7,6.0,30.31,SSW,196,2.0,5.0,37,0.00,,,0.00,weatherlink.com 1.10,2013-03-18 17:52:00,
2013-03-18 14:07:00,29.2,5.0,30.30,NE,55,0.0,4.0,36,0.00,,,0.00,weatherlink.com 1.10,2013-03-18 18:07:00,
2013-03-18 14:22:00,29.5,6.0,30.30,SW,232,1.0,6.0,37,0.00,,,0.00,weatherlink.com 1.10,2013-03-18 18:22:00,
2013-03-18 14:37:00,29.6,7.0,30.30,ESE,109,1.0,4.0,39,0.00,,,0.00,weatherlink.com 1.10,2013-03-18 18:37:00,
2013-03-18 14:52:00,29.8,7.0,30.28,SSW,211,2.0,4.0,38,0.00,,,0.00,weatherlink.com 1.10,2013-03-18 18:52:00,
2013-03-18 15:07:00,29.8,7.0,30.27,SSE,153,1.0,5.0,38,0.00,,,0.00,weatherlink.com 1.10,2013-03-18 19:07:00,
2013-03-18 15:22:00,30.0,7.0,30.26,SSE,163,0.0,5.0,38,0.00,,,0.00,weatherlink.com 1.10,2013-03-18 19:22:00,
2013-03-18 15:37:00,30.3,7.0,30.25,ESE,103,3.0,4.0,38,0.00,,,0.00,weatherlink.com 1.10,2013-03-18 19:37:00,
2013-03-18 15:52:00,30.0,7.0,30.25,South,171,0.0,2.0,38,0.00,,,0.00,weatherlink.com 1.10,2013-03-18 19:52:00,
2013-03-18 16:07:00,30.3,7.0,30.25,SW,215,0.0,6.0,38,0.00,,,0.00,weatherlink.com 1.10,2013-03-18 20:07:00,
2013-03-18 16:22:00,30.3,8.0,30.25,SSW,202,3.0,3.0,39,0.00,,,0.00,weatherlink.com 1.10,2013-03-18 20:22:00,
2013-03-18 16:37:00,29.8,10.0,30.25,SW,230,1.0,6.0,44,0.00,,,0.00,weatherlink.com 1.10,2013-03-18 20:37:00,
2013-03-18 16:52:00,28.8,14.0,30.23,SE,135,3.0,5.0,54,0.00,,,0.00,weatherlink.com 1.10,2013-03-18 20:52:00,
2013-03-18 17:07:00,28.1,16.0,30.22,SW,228,2.0,5.0,61,0.00,,,0.00,weatherlink.com 1.10,2013-03-18 21:07:00,
2013-03-18 17:22:00,28.0,16.0,30.21,East,86,0.0,5.0,62,0.00,,,0.00,weatherlink.com 1.10,2013-03-18 21:22:00,
2013-03-18 17:37:00,28.1,16.0,30.21,ENE,63,1.0,2.0,62,0.00,,,0.00,weatherlink.com 1.10,2013-03-18 21:37:00,
2013-03-18 17:52:00,28.4,16.0,30.21,WSW,241,0.0,3.0,61,0.00,,,0.00,weatherlink.com 1.10,2013-03-18 21:52:00,
2013-03-18 18:08:00,28.4,15.0,30.20,East,91,1.0,4.0,58,0.00,,,0.00,weatherlink.com 1.10,2013-03-18 22:08:00,
2013-03-18 18:23:00,28.7,15.0,30.19,NW,321,2.0,3.0,58,0.00,,,0.00,weatherlink.com 1.10,2013-03-18 22:23:00,
2013-03-18 18:38:00,28.5,16.0,30.19,SSW,205,0.0,4.0,59,0.00,,,0.00,weatherlink.com 1.10,2013-03-18 22:38:00,
2013-03-18 18:53:00,27.0,19.0,30.18,SSE,162,1.0,7.0,73,0.00,,,0.00,weatherlink.com 1.10,2013-03-18 22:53:00,
2013-03-18 19:08:00,26.1,20.0,30.18,SW,221,1.0,5.0,79,0.00,,,0.00,weatherlink.com 1.10,2013-03-18 23:08:00,
2013-03-18 19:23:00,25.6,21.0,30.18,SW,236,1.0,2.0,83,0.00,,,0.00,weatherlink.com 1.10,2013-03-18 23:23:00,
2013-03-18 19:38:00,25.2,22.0,30.18,West,275,2.0,5.0,87,0.00,,,0.00,weatherlink.com 1.10,2013-03-18 23:38:00,
2013-03-18 19:53:00,24.8,22.0,30.17,South,175,0.0,4.0,90,0.00,,,0.00,weatherlink.com 1.10,2013-03-18 23:53:00,
2013-03-18 20:08:00,24.5,22.0,30.18,WSW,248,4.0,6.0,91,0.00,,,0.00,weatherlink.com 1.10,2013-03-19 00:08:00,
2013-03-18 20:23:00,24.5,23.0,30.16,SW,229,3.0,4.0,92,0.00,,,0.00,weatherlink.com 1.10,2013-03-19 00:23:00,
2013-03-18 20:38:00,24.5,23.0,30.16,East,100,3.0,7.0,92,0.00,,,0.00,weatherlink.com 1.10,2013-03-19 00:38:00,
2013-03-18 20:53:00,24.5,23.0,30.15,WSW,256,2.0,5.0,92,0.00,,,0.00,weatherlink.com 1.10,2013-03-19 00:53:00,
2013-03-18 21:08:00,24.7,23.0,30.16,SW,232,2.0,4.0,92,0.00,,,0.00,weatherlink.com 1.10,2013-03-19 01:08:00,
2013-03-18 21:23:00,24.6,23.0,30.16,South,178,2.0,9.0,92,0.00,,,0.00,weatherlink.com 1.10,2013-03-19 01:23:00,
2013-03-18 21:38:00,24.4,23.0,30.15,ENE,61,1.0,5.0,93,0.00,,,0.00,weatherlink.com 1.10,2013-03-19 01:38:00,
2013-03-18 21:53:00,24.4,22.0,30.16,SSE,159,1.0,8.0,92,0.00,,,0.00,weatherlink.com 1.10,2013-03-19 01:53:00,
2013-03-18 22:08:00,24.4,23.0,30.16,SSW,203,1.0,5.0,93,0.00,,,0.00,weatherlink.com 1.10,2013-03-19 02:08:00,
2013-03-18 22:23:00,24.4,23.0,30.15,WSW,242,0.0,2.0,93,0.00,,,0.00,weatherlink.com 1.10,2013-03-19 02:23:00,
2013-03-18 22:38:00,24.4,23.0,30.14,WSW,242,0.0,0.0,93,0.00,,,0.00,weatherlink.com 1.10,2013-03-19 02:38:00,
2013-03-18 22:53:00,24.5,23.0,30.12,NNW,347,0.0,1.0,93,0.00,,,0.00,weatherlink.com 1.10,2013-03-19 02:53:00,
2013-03-18 23:08:00,24.8,23.0,30.11,ENE,71,0.0,3.0,93,0.00,,,0.00,weatherlink.com 1.10,2013-03-19 03:08:00,
2013-03-18 23:23:00,25.3,24.0,30.10,West,265,1.0,3.0,93,0.00,,,0.00,weatherlink.com 1.10,2013-03-19 03:23:00,
2013-03-18 23:38:00,25.5,24.0,30.09,SSW,206,0.0,2.0,94,0.00,,,0.00,weatherlink.com 1.10,2013-03-19 03:38:00,
2013-03-18 23:53:00,25.8,24.0,30.07,WSW,244,0.0,3.0,94,0.00,,,0.00,weatherlink.com 1.10,2013-03-19 03:53:00,